Regional Weather Roundup
Issued by NWS

Home | Current Version | Previous Version | Text Only | Print | Product List | Glossary On
Versions: 1 2 3 4 5 6 7 8 9 10 11 12 13 14 15 16 17 18 19 20 21 22 23 24 25 26 27 28 29 30 31 32 33 34 35 36 37 38 39 40 41 42 43 44 45 46 47 48 49 50
000
ASHW40 PHFO 231343
RWRHI

WEATHER ROUNDUP FOR HAWAII
NATIONAL WEATHER SERVICE HONOLULU HI
300 AM HST SUN JUL 23 2017

THIS IS AN AUTOMATED REPORT THAT HAS NOT BEEN QUALITY CONTROLLED.

NOTE..."FAIR" INDICATES FEW OR NO CLOUDS BELOW 12,000 FEET WITH NO
SIGNIFICANT WEATHER AND/OR OBSTRUCTIONS TO VISIBILITY.

* - THESE SITES REPORT LIMITED FIELDS
# - BUOY DATA PROVIDED BY PACIFIC ISLANDS OCEAN OBSERVING SYSTEM.

HIZ001>004-231400-
KAUAI-NIIHAU-

CITY           SKY/WX    TMP DP  RH WIND       PRES   REMARKS
LIHUE APT      MOCLDY    80  73  79 E16       29.96S
PORT ALLEN*      N/A     77 N/A N/A E15         N/A
POIPU*           N/A     77 N/A N/A NE8G15      N/A
PRINCEVILLE*     N/A     75 N/A N/A SE7G13      N/A
KOKOLE POINT*  NOT AVBL
MOLOAA DAIRY*    N/A     77  72  83 E8G15       N/A
WAIMEA HTS*      N/A     75  70  83 N3G16       N/A
PUU OPAE*        N/A     68  66  94 NE3         N/A
PUU LUA*       NOT AVBL
MAKAHA RIDGE*    N/A     70  64  83 CALM        N/A
$$

HIZ005>011-231400-
OAHU-

CITY           SKY/WX    TMP DP  RH WIND       PRES   REMARKS
HONOLULU       MOCLDY    77  69  76 NE5       29.94F
KALAELOA       CLEAR     77  68  73 NE5       29.95F
KANEOHE MCB    NOT AVBL
WHEELER FIELD  FAIR      72  68  88 CALM      29.95F
BELLOWS*         N/A    N/A N/A N/A NE16        N/A
KAHUKU*          N/A    N/A N/A N/A NE7G13      N/A
WHEELER*         N/A    N/A N/A N/A NW1         N/A
WAIANAE HARBOR   N/A    N/A N/A N/A E6          N/A
DILLINGHAM*      N/A     73  68  83 NW1         N/A
KAHUKU TRN*      N/A     73  72  94 W5G14       N/A
KAWAILOA*        N/A     72  68  88 E10G16      N/A
KII*             N/A     79  73  83 CALM        N/A
MAKUA RANGE*     N/A     73  66  78 NW3         N/A
OAHU FOREST NW   N/A     70  66  88 E5G26       N/A
SCHOFIELD BRK*   N/A     72  68  88 MISG        N/A
SCHOFIELD S*   NOT AVBL
WAIANAE VLY*     N/A     75  66  73 W2G13       N/A
KUAOKALA*        N/A     73  66  78 NE3G13      N/A
HONOULIUULI*   NOT AVBL
MOKUOLOE IS*   NOT AVBL
PALEHUA*         N/A     66  66 100 NE13G24     N/A
WAIAWA PHB*    NOT AVBL
$$

HIZ012>013-231400-
MOLOKAI-

CITY           SKY/WX    TMP DP  RH WIND       PRES   REMARKS
MOLOKAI AIRPT  CLEAR     80  73  79 NE8G20    29.95F
KALAUPAPA      NOT AVBL
MAKAPULAPAI*     N/A     77  73  88 E14G21      N/A
MOLOKAI 1*       N/A     66  63  88 CALM        N/A
PUU ALII*        N/A     63  63 100 N2G10       N/A
$$

HIZ016-231400-
KAHOOLAWE-

CITY           SKY/WX    TMP DP  RH WIND       PRES   REMARKS
KAHOOLAWE*     NOT AVBL
HAKIOAWA*        N/A     73  69  88 MISG      30.36F
HONOKANAIA*      N/A     78  69  73 NE10G22   29.89F
KANELOA*         N/A     75  70  83 NE16G26   30.02F
KEALIALALO*    NOT AVBL
LUA MAKIKA*    NOT AVBL
$$

HIZ014>015-231400-
LANAI-

CITY           SKY/WX    TMP DP  RH WIND       PRES   REMARKS
LANAI CITY     FAIR      71  69  93 NE3       30.00F
LANAI 1*         N/A     72  70  94 E12G18      N/A
$$

HIZ017>028-231400-
MAUI-

CITY           SKY/WX    TMP DP  RH WIND       PRES   REMARKS
KAHULUI        CLEAR     76  70  82 NE9       29.93F
KAPALUA-W MAUI NOT AVBL
HANA AIRPORT   CLOUDY    77  73  88 E2        29.98F
HANA*            N/A     77 N/A N/A E8          N/A
HALEAKALA SUMM   N/A     45  36  70 E36         N/A
MAALAEA BAY*     N/A     77 N/A N/A N10G17      N/A
HALEAKALA*     NOT AVBL
KAUPO GAP*     NOT AVBL
KULA 1*          N/A     52  52 100 N2          N/A
$$

HIZ023>026-231400-
BIG ISLAND OF HAWAII COAST AND LOWER SLOPES-

CITY           SKY/WX    TMP DP  RH WIND       PRES   REMARKS
KAILUA KONA    PTCLDY    77  68  73 E3        29.91F
HILO           LGT RAIN  72  70  94 S5        29.95F
HONOKAA*         N/A     72 N/A N/A VRB1        N/A
KAWAIHAE MWT*    N/A     79 N/A N/A SW5         N/A
KAWAIHAE*        N/A     79 N/A N/A N5        29.91F
SOUTH POINT*     N/A     70 N/A N/A N10         N/A
UPOLU AIRPORT* NOT AVBL
KAMUELA*       NOT AVBL
HAKALAU*         N/A     48  46  93 SW3         N/A
KALOKO-HONOKO*   N/A     73  66  78 NE6         N/A
PALI 2*          N/A     66  61  82 SW9G17      N/A
KEALAKOMO*       N/A     79  68  69 NE9G15      N/A
KAUPULEHU*       N/A     70  64  83 SE7         N/A
KAPAPALA*        N/A     60  60  98 NW6         N/A
LOWER KAHUKU*    N/A     59  59 100 N3          N/A
PUHE CS*         N/A     75  64  69 S1          N/A
PUHO CS*         N/A     73  67  81 E2          N/A
PTA KEAMUKU*   NOT AVBL
WAIKOLOA*        N/A     66  61  82 SE7         N/A
$$

HIZ027>028-231400-
BIG ISLAND OF HAWAII INTERIOR AND SUMMMITS-

CITY           SKY/WX    TMP DP  RH WIND       PRES   REMARKS
BRADSHAW FIELD CLOUDY    49  41  75 CALM      30.27F
MK VISITOR CEN   N/A     48  36  61 NE16        N/A
MAUNA KEA*       N/A     41 -22   6 CALM        N/A
MAUNA LOA*       N/A     45 -18   6 MISG        N/A
MAUNA LOA 1*   NOT AVBL
PTA KIPUKA*      N/A     54  54 100 SE3         N/A
PTA RANGE 17*    N/A     57  48  72 E9G18       N/A
PTA WEST*        N/A     72  68  88 SE9         N/A
NENE CABIN*      N/A     52  39  62 NE6G12      N/A
AHUMOA*          N/A     48  46  93 E5          N/A
PTA PORTABLE*  NOT AVBL
PUU MALI*        N/A     61  61 100 SE13G24     N/A
$$

HIC003-231400-
NORTHWEST ISLANDS-

CITY           SKY/WX    TMP DP  RH WIND       PRES   REMARKS
MIDWAY ISLAND  LGT RAIN  79  73  83 E7        30.02F
MIDWAY NOS*      N/A     79 N/A N/A MISG      30.00F
FRENCH FRIGATE NOT AVBL
$$

PHZ110>124-180-231400-
BUOY REPORTS

STATION/POSITION TIME  TEMP    WIND        PRES    WAVE   SWELL
                       AIR SEA DIR/SP/G            HT/PER HT/DIR
                 (UTC) (F)     (DEG/KT/KT) (MB)    (FT/S) (FT/D)
BUOY 51001       1330   80 81   90/ 14/ 19 1015.0F
BUOY 51101       1250   80 81   90/ 17/ 21 1015.3F   8/12   5/110
BUOY 51100       NOT AVBL
BUOY 51002       1330   79 80   90/ 12/ 16 1011.6F
BUOY 51003       1250   80 82  110/  8/ 10 1012.6F   5/ 8   5/ 70
BUOY 51004       1250      79   30/ 10/ 12 1012.4F   8/ 9   7/ 90
WAIMEA BAY#      1302      78                N/A     3/ 8
MOKAPU POINT#    1304      80                N/A     6/10   2/100
LANAI#           NOT AVBL
BARBERS PT 2#    NOT AVBL
PAUWELA#         1309      80                N/A     6/10   2/ 80
HILO#            1327      79                N/A     6/10   2/110
KANEOHE BAY#     1325      79                N/A     5/ 8   2/ 80
KANEOHE BAY 2#   NOT AVBL
HANALEI#         1322      80                N/A     6/11   3/ 90
KAHULUI HARBOR   1306   77 80   50/  8/ 14 1013.7
HONOLULU HARBOR  1306   79 81   30/  2/  5 1014.6
PEARL HARBOR#    1300      81                N/A     3/ 6   2/160
KILO NALU        NOT AVBL
HILO HARBOR      1306   72 81  180/  3/  5 1013.9
MOKUOLOE         1236   79 81   90/  8/ 12 1014.4F
NAWILIWILI       1306   78 82   60/ 12/ 14 1014.1
WHOTS BUOY       NOT AVBL
BUOY 51028       NOT AVBL
$$

......................KEY........................................
  SKY/WX - SKY CONDITIONS/PRESENT WEATHER
  TMP    - TEMPERATURE IN FAHRENHEIT
  DWPT   - DEWPOINT IN FAHRENHEIT
  RH     - RELATIVE HUMIDITY IN PERCENT
  WIND   - DIRECTION AND SPEED /MPH FOR ISLANDS...KTS FOR BUOYS/
  PRES   - MEAN SEA LEVEL PRESSURE IN INCHES OF HG
  VSB    - VISIBILITY IN MILES
  HX     - HEAT INDEX
  WCI    - WIND CHILL INDEX
  VRB    - VARIABLE WIND DIRECTION
  N/A    - NOT AVAILABLE




USA.gov is the U.S. government's official web portal to all federal, state and local government web resources and services.